Overview Statistics Trail Chart Weather Telemetry Raw packets
 

This is the latest recevied weather packets stored in our database for station/object K8RRT. If no packets are shown the sender has not sent any weather packets the latest 10 day(s).

<< 7 8 9 10 11 12 13 >>
Time Temp. Humidity Pressure Rain* Wind** Luminosity Snow
1788564699 27.22° C 91% 1009 hPa 0 mm - 19 W/m² -
1788564395 27.78° C 90% 1009.1 hPa 0 mm - 22 W/m² -
1788564091 27.22° C 90% 1009.3 hPa 0 mm - 24 W/m² -
1788563786 27.22° C 90% 1009.4 hPa 0 mm - 24 W/m² -
1788563481 27.22° C 90% 1009.7 hPa 0 mm - 22 W/m² -
1788563181 27.22° C 89% 1009.6 hPa 0 mm - 21 W/m² -
1788562876 27.78° C 89% 1010 hPa 0 mm - 23 W/m² -
1788562574 27.78° C 87% 1009.8 hPa 0 mm - 27 W/m² -
1788562269 28.33° C 86% 1010.1 hPa 0 mm - 33 W/m² -
1788561963 28.89° C 85% 1010.4 hPa 0 mm - 45 W/m² -
1788561658 28.89° C 83% 1010.2 hPa 0 mm - 56 W/m² -
1788561357 29.44° C 81% 1010.2 hPa 0 mm - 71 W/m² -
1788561053 29.44° C 80% 1010.3 hPa 0 mm - 81 W/m² -
1788560749 30° C 77% 1010.5 hPa 0 mm - 115 W/m² -
1788560444 30° C 80% 1010.4 hPa 0 mm - 154 W/m² -
1788560138 29.44° C 82% 1010.7 hPa 0 mm - 190 W/m² -
1788559833 28.33° C 85% 1010.7 hPa 0 mm - 160 W/m² -
1788559533 28.89° C 80% 1011 hPa 0 mm - 183 W/m² -
1788559229 28.89° C 80% 1011 hPa 0 mm - 225 W/m² -
1788558928 27.78° C 82% 1011.2 hPa 0 mm - 248 W/m² -
1788558624 27.78° C 85% 1011.1 hPa 0 mm - 259 W/m² -
1788558320 27.22° C 89% 1011.1 hPa 0 mm - 271 W/m² -
1788558015 27.22° C 89% 1011.3 hPa 0 mm - 358 W/m² -
1788557713 27.78° C 90% 1011 hPa 0 mm - 373 W/m² -
1788557410 27.22° C 88% 1011.2 hPa 0 mm - 386 W/m² -

* Rain latest hour (hover to see other rain measurements)
** Current wind speed in m/s (hover to see current wind gust speed)